When you browse on this site, cookies collect data to enhance your experience and personalize the content and advertising you see.
Visit our Privacy Policy to learn more. By continuing to use the site, you agree to this use of cookies and data.
  • In Österreich
  • Länderverzeichnis
  • Für 7 Tage
  • Wassertemperatur
  • Wetterkarte
  • News
  • Widgets
  • user-avatar
    Anmelden

    Stündliche Wetter Huautla

    Heute, 6 Juni, Samstag

    Zeit Temperatur Niederschläge Wind Luftdruck Luftfeuchtigkeit
    00:00 +23°C° 0 mm 1 m/S 721 mmHg 93%
    01:00 +23°C° 0 mm 1 m/S 721 mmHg 93%
    02:00 +22°C° 0 mm 1 m/S 720 mmHg 93%
    03:00 +22°C° 0 mm 1 m/S 720 mmHg 93%
    04:00 +22°C° 0 mm 1 m/S 720 mmHg 93%
    05:00 +22°C° 0 mm 1 m/S 721 mmHg 94%
    06:00 +24°C° 0 mm 1 m/S 721 mmHg 88%
    07:00 +26°C° 0 mm 1 m/S 721 mmHg 81%
    08:00 +27°C° 0 mm 1 m/S 722 mmHg 75%
    09:00 +29°C° 0 mm 1 m/S 721 mmHg 68%
    10:00 +30°C° 0 mm 2 m/S 721 mmHg 61%
    11:00 +32°C° 0 mm 2 m/S 721 mmHg 53%
    12:00 +34°C° 0 mm 2 m/S 720 mmHg 51%
    13:00 +34°C° 0 mm 2 m/S 720 mmHg 48%
    14:00 +35°C° 0 mm 2 m/S 719 mmHg 45%
    15:00 +34°C° 0 mm 2 m/S 719 mmHg 50%
    16:00 +33°C° 0 mm 3 m/S 719 mmHg 55%
    17:00 +31°C° 0 mm 3 m/S 719 mmHg 60%
    18:00 +29°C° 0 mm 2 m/S 720 mmHg 69%
    19:00 +27°C° 0 mm 2 m/S 720 mmHg 77%
    20:00 +25°C° 0 mm 2 m/S 721 mmHg 86%
    21:00 +24°C° 0 mm 2 m/S 721 mmHg 87%
    22:00 +24°C° 0 mm 1 m/S 721 mmHg 88%
    23:00 +24°C° 0 mm 1 m/S 721 mmHg 89%

    Morgen, 7 Juni, Sonntag

    Zeit Temperatur Niederschläge Wind Luftdruck Luftfeuchtigkeit
    00:00 +24°C° 0 mm 1 m/S 720 mmHg 88%
    01:00 +23°C° 0 mm 1 m/S 720 mmHg 88%
    02:00 +23°C° 0 mm 1 m/S 719 mmHg 88%
    03:00 +23°C° 0 mm 1 m/S 719 mmHg 87%
    04:00 +23°C° 0 mm 1 m/S 719 mmHg 85%
    05:00 +23°C° 0 mm 1 m/S 719 mmHg 84%
    06:00 +25°C° 0 mm 1 m/S 719 mmHg 77%
    07:00 +27°C° 0 mm 1 m/S 720 mmHg 71%
    08:00 +27°C° 0 mm 0 m/S 720 mmHg 64%
    09:00 +31°C° 0 mm 1 m/S 720 mmHg 59%
    10:00 +32°C° 0 mm 2 m/S 719 mmHg 55%
    11:00 +34°C° 0 mm 2 m/S 719 mmHg 50%
    12:00 +35°C° 0 mm 3 m/S 719 mmHg 49%
    13:00 +35°C° 0 mm 3 m/S 718 mmHg 47%
    14:00 +36°C° 0 mm 3 m/S 718 mmHg 45%
    15:00 +35°C° 0 mm 4 m/S 717 mmHg 51%
    16:00 +33°C° 0 mm 4 m/S 717 mmHg 56%
    17:00 +32°C° 0 mm 5 m/S 717 mmHg 61%
    18:00 +29°C° 0 mm 4 m/S 718 mmHg 68%
    19:00 +27°C° 0 mm 3 m/S 718 mmHg 75%
    20:00 +25°C° 0 mm 2 m/S 719 mmHg 82%
    21:00 +25°C° 0 mm 2 m/S 719 mmHg 84%
    22:00 +25°C° 0 mm 2 m/S 719 mmHg 85%
    23:00 +25°C° 0 mm 2 m/S 719 mmHg 87%

    übermorgen, 8 Juni, Montag

    Zeit Temperatur Niederschläge Wind Luftdruck Luftfeuchtigkeit
    00:00 +24°C° 0 mm 1 m/S 718 mmHg 87%
    01:00 +24°C° 0 mm 1 m/S 718 mmHg 87%
    02:00 +24°C° 0 mm 1 m/S 718 mmHg 87%
    03:00 +24°C° 0 mm 1 m/S 718 mmHg 87%
    04:00 +24°C° 0 mm 1 m/S 718 mmHg 87%
    05:00 +23°C° 0 mm 1 m/S 718 mmHg 88%
    06:00 +26°C° 0 mm 1 m/S 718 mmHg 80%
    07:00 +28°C° 0 mm 1 m/S 719 mmHg 72%
    08:00 +30°C° 0 mm 1 m/S 719 mmHg 65%
    09:00 +32°C° 0 mm 1 m/S 719 mmHg 59%
    10:00 +34°C° 0 mm 2 m/S 719 mmHg 52%
    11:00 +36°C° 0 mm 2 m/S 718 mmHg 46%
    12:00 +36°C° 0 mm 3 m/S 718 mmHg 46%
    13:00 +37°C° 0 mm 3 m/S 718 mmHg 45%
    14:00 +37°C° 0 mm 3 m/S 717 mmHg 44%
    15:00 +36°C° 0 mm 3 m/S 717 mmHg 50%
    16:00 +35°C° 0 mm 3 m/S 717 mmHg 56%
    17:00 +34°C° 0 mm 3 m/S 717 mmHg 62%
    18:00 +31°C° 0 mm 2 m/S 717 mmHg 69%
    19:00 +29°C° 0 mm 2 m/S 718 mmHg 77%
    20:00 +27°C° 0 mm 1 m/S 719 mmHg 84%
    21:00 +27°C° 0 mm 1 m/S 719 mmHg 85%
    22:00 +26°C° 0 mm 1 m/S 719 mmHg 86%
    23:00 +26°C° 0 mm 1 m/S 719 mmHg 88%

    9 Juni, Dienstag

    Zeit Temperatur Niederschläge Wind Luftdruck Luftfeuchtigkeit
    00:00 +26°C° 0 mm 1 m/S 719 mmHg 88%
    01:00 +25°C° 0 mm 1 m/S 719 mmHg 88%
    02:00 +25°C° 0 mm 1 m/S 718 mmHg 89%
    03:00 +25°C° 0 mm 1 m/S 718 mmHg 89%
    04:00 +25°C° 0 mm 1 m/S 718 mmHg 89%
    05:00 +24°C° 0 mm 1 m/S 719 mmHg 89%
    06:00 +27°C° 0 mm 1 m/S 719 mmHg 81%
    07:00 +29°C° 0 mm 1 m/S 719 mmHg 74%
    08:00 +31°C° 0 mm 1 m/S 720 mmHg 67%
    09:00 +33°C° 0 mm 1 m/S 720 mmHg 61%
    10:00 +34°C° 0 mm 1 m/S 720 mmHg 55%
    11:00 +37°C° 0 mm 2 m/S 720 mmHg 49%
    12:00 +38°C° 0 mm 2 m/S 719 mmHg 45%
    13:00 +39°C° 0 mm 2 m/S 719 mmHg 41%
    14:00 +39°C° 0 mm 2 m/S 719 mmHg 38%
    15:00 +38°C° 0 mm 2 m/S 718 mmHg 44%
    16:00 +37°C° 0 mm 3 m/S 718 mmHg 50%
    17:00 +36°C° 0 mm 4 m/S 718 mmHg 56%
    18:00 +33°C° 0.1 mm 3 m/S 719 mmHg 67%
    19:00 +30°C° 0.1 mm 2 m/S 719 mmHg 79%
    20:00 +27°C° 0.1 mm 1 m/S 720 mmHg 90%
    21:00 +27°C° 0.6 mm 1 m/S 720 mmHg 91%
    22:00 +26°C° 0.6 mm 1 m/S 721 mmHg 92%
    23:00 +26°C° 0.6 mm 1 m/S 721 mmHg 93%

    10 Juni, Mittwoch

    Zeit Temperatur Niederschläge Wind Luftdruck Luftfeuchtigkeit
    00:00 +26°C° 0 mm 1 m/S 721 mmHg 94%
    01:00 +25°C° 0 mm 1 m/S 721 mmHg 95%
    02:00 +25°C° 0 mm 1 m/S 721 mmHg 96%
    03:00 +25°C° 0 mm 1 m/S 721 mmHg 96%
    04:00 +26°C° 0 mm 1 m/S 722 mmHg 95%
    05:00 +26°C° 0 mm 1 m/S 722 mmHg 95%
    06:00 +27°C° 0.1 mm 1 m/S 722 mmHg 89%
    07:00 +28°C° 0.1 mm 2 m/S 723 mmHg 84%
    08:00 +29°C° 0.1 mm 2 m/S 723 mmHg 79%
    09:00 +30°C° 0.2 mm 2 m/S 723 mmHg 73%
    10:00 +31°C° 0.2 mm 2 m/S 723 mmHg 67%
    11:00 +33°C° 0.2 mm 3 m/S 723 mmHg 60%
    12:00 +33°C° 1.3 mm 3 m/S 723 mmHg 61%
    13:00 +32°C° 1.3 mm 2 m/S 722 mmHg 61%
    14:00 +32°C° 1.3 mm 2 m/S 722 mmHg 62%
    15:00 +31°C° 3.3 mm 2 m/S 722 mmHg 69%
    16:00 +30°C° 3.3 mm 2 m/S 722 mmHg 76%
    17:00 +29°C° 3.3 mm 1 m/S 722 mmHg 83%
    18:00 +28°C° 1.7 mm 1 m/S 723 mmHg 84%
    19:00 +27°C° 1.7 mm 1 m/S 723 mmHg 86%
    20:00 +26°C° 1.7 mm 1 m/S 724 mmHg 88%
    21:00 +25°C° 0.2 mm 1 m/S 724 mmHg 87%
    22:00 +25°C° 0.2 mm 1 m/S 724 mmHg 87%
    23:00 +25°C° 0.2 mm 1 m/S 724 mmHg 86%

    11 Juni, Donnerstag

    Zeit Temperatur Niederschläge Wind Luftdruck Luftfeuchtigkeit
    00:00 +24°C° 0.1 mm 1 m/S 724 mmHg 86%
    01:00 +24°C° 0.1 mm 1 m/S 724 mmHg 87%
    02:00 +24°C° 0.1 mm 1 m/S 723 mmHg 87%
    03:00 +24°C° 0.4 mm 1 m/S 723 mmHg 88%
    04:00 +23°C° 0.4 mm 1 m/S 724 mmHg 89%
    05:00 +23°C° 0.4 mm 1 m/S 724 mmHg 90%
    06:00 +25°C° 0.5 mm 1 m/S 724 mmHg 86%
    07:00 +26°C° 0.5 mm 2 m/S 724 mmHg 81%
    08:00 +28°C° 0.5 mm 2 m/S 725 mmHg 76%
    09:00 +29°C° 0.8 mm 2 m/S 725 mmHg 72%
    10:00 +29°C° 0.8 mm 2 m/S 724 mmHg 68%
    11:00 +30°C° 0.8 mm 3 m/S 724 mmHg 64%
    12:00 +30°C° 1.4 mm 2 m/S 724 mmHg 65%
    13:00 +30°C° 1.4 mm 2 m/S 723 mmHg 66%
    14:00 +30°C° 1.4 mm 2 m/S 723 mmHg 66%
    15:00 +30°C° 1.8 mm 1 m/S 723 mmHg 71%
    16:00 +29°C° 1.8 mm 1 m/S 723 mmHg 76%
    17:00 +28°C° 1.8 mm 1 m/S 723 mmHg 81%
    18:00 +27°C° 1.2 mm 1 m/S 724 mmHg 84%
    19:00 +26°C° 1.2 mm 1 m/S 724 mmHg 86%
    20:00 +24°C° 1.2 mm 1 m/S 724 mmHg 89%
    21:00 +24°C° 0.7 mm 1 m/S 725 mmHg 89%
    22:00 +24°C° 0.7 mm 1 m/S 725 mmHg 89%
    23:00 +24°C° 0.7 mm 1 m/S 725 mmHg 90%
    Mehr zeigen